This is the latest recevied weather packets stored in our database for station/object KS5S. If no packets are shown the sender has not sent any weather packets the latest 10 day(s).
| Time | Temp. | Humidity | Pressure | Rain* | Wind** | Luminosity | Snow |
|---|---|---|---|---|---|---|---|
| 1777742958 | 22.78° C | 43% | 1020.1 hPa | 0 mm | - | 953 W/m² | - |
| 1777742655 | 22.22° C | 40% | 1020.4 hPa | 0 mm | - | 948 W/m² | - |
| 1777742350 | 22.22° C | 41% | 1020.3 hPa | 0 mm | - | 944 W/m² | - |
| 1777742047 | 22.22° C | 47% | 1020.5 hPa | 0 mm | - | 936 W/m² | - |
| 1777741745 | 21.67° C | 47% | 1020.5 hPa | 0 mm | - | 934 W/m² | - |
| 1777741441 | 21.67° C | 47% | 1020.6 hPa | 0 mm | - | 924 W/m² | - |
| 1777741137 | 22.22° C | 47% | 1020.3 hPa | 0 mm | - | 910 W/m² | - |
| 1777740834 | 21.67° C | 51% | 1020.8 hPa | 0 mm | - | 902 W/m² | - |
| 1777740531 | 22.22° C | 52% | 1020.8 hPa | 0 mm | - | 897 W/m² | - |
| 1777740228 | 21.11° C | 51% | 1020.7 hPa | 0 mm | - | 888 W/m² | - |
| 1777739924 | 21.67° C | 51% | 1020.8 hPa | 0 mm | - | 877 W/m² | - |
| 1777739620 | 21.67° C | 49% | 1020.6 hPa | 0 mm | - | 868 W/m² | - |
| 1777739318 | 21.67° C | 50% | 1020.6 hPa | 0 mm | - | 859 W/m² | - |
| 1777739014 | 21.11° C | 52% | 1020.5 hPa | 0 mm | - | 849 W/m² | - |
| 1777738711 | 20.56° C | 51% | 1020.6 hPa | 0 mm | - | 832 W/m² | - |
| 1777738402 | 21.11° C | 49% | 1020.4 hPa | 0 mm | - | 823 W/m² | - |
| 1777738100 | 21.11° C | 51% | 1020.7 hPa | 0 mm | - | 810 W/m² | - |
| 1777737798 | 20.56° C | 55% | 1020.6 hPa | 0 mm | - | 792 W/m² | - |
| 1777737497 | 20.56° C | 55% | 1020.5 hPa | 0 mm | - | 778 W/m² | - |
| 1777737194 | 20.56° C | 58% | 1020.4 hPa | 0 mm | - | 769 W/m² | - |
| 1777736889 | 20.56° C | 54% | 1020.3 hPa | 0 mm | - | 748 W/m² | - |
| 1777736276 | 20.56° C | 55% | 1020.4 hPa | 0 mm | - | 711 W/m² | - |
| 1777735973 | 20° C | 59% | 1020.5 hPa | 0 mm | - | 696 W/m² | - |
| 1777735670 | 20° C | 59% | 1020.3 hPa | 0 mm | - | 673 W/m² | - |
| 1777735368 | 20° C | 60% | 1020.3 hPa | 0 mm | - | 659 W/m² | - |
* Rain latest hour (hover to see other rain measurements)
** Current wind speed in m/s (hover to see current wind gust speed)